Terminal Aerodrome Forecast
Issued by NWS

Home | Current Version | Previous Version | Text Only | Print | Product List | Glossary On
Versions: 1 2 3 4 5 6 7 8 9 10 11 12 13 14 15 16 17 18 19 20 21 22 23 24 25
000
FTUS45 KBOI 171726
TAFBKE
TAF
KBKE 171726Z 1718/1818 VRB03KT P6SM BKN200
     FM171900 18012KT P6SM BKN200
     FM180300 22005KT P6SM OVC200
      TEMPO 1810/1814 23006G18KT P6SM -SHRA BKN110
     FM181600 34006KT P6SM FEW110 BKN250=

USA.gov is the U.S. government's official web portal to all federal, state and local government web resources and services.